Back to catalog

COSMOS 1520

GLONASS

AliveNavigationMEO
NORAD 14591·PAYLOAD·🇷🇺 Russia

Launched Dec 29, 1983 from Baikonur Cosmodrome

Loading…

Next Passes (next 24 hours)

TLE

AgingSource: Space-Track

Epoch: Aug 29, 2026, 04:42 UTC

1 14591U 83127B   26241.19611859 -.00000043  00000-0  00000+0 0  9993
2 14591  66.3798 326.6297 0024578 170.6014 242.9286  2.13103109272511

Track COSMOS 1520 in real time with AllMySat

Download on the App Store